[[{"header":{"parameterUnit":"m.s-1","parameterCategory":2,"la1":30.2991,"la2":30.254,"lo1":-89.0895,"lo2":-89.0444,"dy":0.0017,"dx":0.0017,"nx":28,"ny":28,"refTime":"2024-10-18T21:00:00:Z","depth":"0","parameterNumber":2,"parameterNumberName":"U-component_of_CURRENTS"},"data":[0,0,0,0,0,0,0,0,0,0,0,0,0,0,0,0,0,0,0,0,0,0,0,0,0,0,0,0,0,0,0,0,0,0,0,0,0,0,0,0,0,0,0,0,0,0,0,0,0,0,0,0,0,0,0,0,0,0,0.1857,0.1856,0,0.1807,0.1806,0.1805,0.1771,0.1771,0.177,0.177,0.1741,0.1741,0.174,0,0,0,0,0,0,0,0,0,0,0,0,0,0.1926,0.1924,0.1857,0.1856,0.1856,0.1807,0.1806,0.1805,0.1771,0.1771,0.177,0.177,0.1742,0.1741,0.174,0,0,0,0,0,0,0,0,0,0,0,0,0,0.1886,0.1924,0.1857,0.1834,0.1832,0.1807,0.1806,0.1805,0.1771,0.1771,0.177,0.177,0.1742,0.1741,0.174,0.1736,0,0,0.1737,0.1736,0,0,0,0,0,0,0,0,0.1888,0.1883,0.1838,0.1836,0.1833,0.1797,0.182,0.1784,0.1771,0.1792,0.177,0.177,0.1763,0.176,0.1748,0.1735,0.1734,0.1737,0.1736,0.1736,0.1735,0,0,0,0,0,0,0,0.1891,0.1885,0.1835,0.1837,0.1834,0.1828,0.1822,0.1813,0.1778,0.179,0.1788,0.1785,0.1762,0.1749,0.1747,0.1733,0.1737,0.1736,0.1735,0.1735,0.174,0.1741,0,0,0,0,0,0,0.1901,0.1888,0.1837,0.1834,0.1863,0.1827,0.182,0.1807,0.1777,0.1773,0.1786,0.1784,0.1751,0.1749,0.1746,0.176,0.1736,0.1735,0.1734,0.1739,0.174,0.1741,0,0,0,0,0,0,0.1902,0.1896,0.1839,0.1862,0.1854,0.1826,0.1811,0.1806,0.1797,0.1774,0.177,0.1783,0.1751,0.1748,0.1743,0.1758,0.1734,0.1733,0.1738,0.1739,0.174,0.1775,0,0,0,0,0,0,0.1904,0.1897,0.1893,0.1862,0.1853,0.183,0.1811,0.1805,0.1797,0.1794,0.1771,0.1768,0.1751,0.1745,0.1742,0.1756,0.1732,0.1737,0.1739,0.174,0.1773,0.1777,0.178,0,0,0,0,0,0.1907,0.1901,0.1893,0.1887,0.1848,0.1831,0.1826,0.1804,0.1797,0.1795,0.178,0.1768,0.1752,0.1744,0.1741,0.1755,0.1737,0.1738,0.174,0.1771,0.1776,0.178,0,0,0,0,0,0,0.1927,0.1897,0.1886,0.1871,0.1856,0.1826,0.1822,0.181,0.1795,0.1795,0.1772,0.1768,0.1774,0.176,0.1752,0.1762,0.1745,0.1746,0.177,0.1774,0.1778,0.1797,0.1732,0,0,0,0,0,0.1931,0.1918,0.1893,0.1882,0.1877,0.1852,0.1843,0.183,0.1813,0.1806,0.1789,0.1779,0.1777,0.1772,0.1766,0.1766,0.1773,0.1775,0.1779,0.1783,0.1797,0.1824,0.1832,0.1746,0.1746,0.1746,0,0,0.1934,0.1918,0.1909,0.1886,0.1871,0.1864,0.1846,0.1836,0.1834,0.1807,0.18,0.1793,0.1782,0.1785,0.1786,0.1774,0.1809,0.1785,0.1788,0.18,0.1826,0.1835,0.1842,0.1747,0.1747,0.1747,0,0,0.1937,0.1923,0.1914,0.1905,0.189,0.1877,0.1879,0.1854,0.1849,0.1842,0.183,0.1835,0.1816,0.1817,0.1815,0.1839,0.1833,0.1835,0.1864,0.189,0.1897,0.1904,0.1916,0.1924,0.1832,0.1832,0.1832,0,0.1943,0.1925,0.1911,0.1905,0.1901,0.1887,0.1883,0.1878,0.1856,0.1861,0.1846,0.1846,0.1836,0.1853,0.1862,0.185,0.1858,0.1844,0.1896,0.1903,0.1909,0.192,0.1928,0.1834,0.1834,0.1833,0.1833,0,0.1937,0.1927,0.1925,0.1911,0.1909,0.1904,0.1899,0.19,0.1894,0.1889,0.1906,0.1894,0.1895,0.1895,0.1884,0.1924,0.1913,0.1901,0.1885,0.192,0.1928,0.1936,0.1836,0.1836,0.1835,0.1835,0,0,0.193,0.1922,0.1919,0.1914,0.1913,0.1904,0.192,0.1924,0.1938,0.1931,0.195,0.1955,0.1955,0.1955,0.1947,0.197,0.2016,0.1956,0.1957,0.197,0.2068,0.2007,0.2009,0.2013,0.2015,0.2016,0.2054,0,0.1926,0.1915,0.1918,0.1912,0.1905,0.1913,0.1929,0.1938,0.1949,0.1967,0.1978,0.1993,0.1976,0.1981,0.2004,0.2019,0.2039,0.2007,0.2031,0.2032,0.1975,0.2017,0.1899,0.1918,0.2061,0.2062,0.2063,0,0.1911,0.1906,0.19,0.1907,0.1908,0.1911,0.1935,0.1947,0.1985,0.2002,0.2027,0.2034,0.2071,0.2049,0.2097,0.2077,0.208,0.2087,0.2088,0.2028,0.1986,0.1908,0.1927,0.1827,0.2075,0.2074,0.2073,0,0.1891,0.189,0.1885,0.1884,0.1896,0.1905,0.1917,0.1954,0.1976,0.2027,0.2049,0.209,0.2108,0.2134,0.2143,0.2127,0.2193,0.2167,0.2115,0.211,0.2013,0.1997,0.1941,0.2207,0.2207,0.2206,0.2206,0,0.1874,0.1865,0.1873,0.1865,0.1872,0.1889,0.1911,0.194,0.199,0.2018,0.2061,0.2088,0.2133,0.2164,0.217,0.2168,0.2213,0.2136,0.2123,0.2019,0.2004,0.1915,0.1866,0.2208,0.2207,0.2207,0.2207,0,0.184,0.1847,0.1838,0.1852,0.1858,0.1859,0.1898,0.1917,0.1973,0.2013,0.2031,0.21,0.2142,0.2175,0.2221,0.2191,0.2111,0.2187,0.2056,0.2027,0.1863,0.182,0.1724,0.166,0.2133,0.2132,0.2131,0,0.1817,0.181,0.182,0.1819,0.1822,0.1833,0.1847,0.1902,0.1931,0.2008,0.2026,0.2087,0.211,0.2158,0.2139,0.2142,0.2062,0.2019,0.1965,0.1849,0.1793,0.173,0.1678,0.185,0.1846,0.1844,0.1842,0,0.178,0.1787,0.1785,0.1782,0.1788,0.1793,0.1819,0.1841,0.1904,0.1935,0.1983,0.201,0.2055,0.2005,0.2007,0.1991,0.1868,0.1963,0.1881,0.1602,0.1492,0.1424,0.1827,0.1818,0.1821,0.1822,0.1824,0.1825,0.1755,0.1746,0.1747,0.174,0.1745,0.1741,0.1726,0.1759,0.1779,0.1798,0.1881,0.1872,0.1849,0.1834,0.1816,0.1669,0.1701,0.1572,0.1543,0.1501,0.1391,0.1737,0.1688,0.169,0.1691,0.1692,0.1693,0,0.1716,0.171,0.1704,0.1685,0.1662,0.1683,0.1694,0.1666,0.1648,0.1682,0.1692,0.162,0.1536,0.1513,0.137,0.1256,0.1211,0.1189,0.107,0.1052,0.1388,0.1327,0.115,0.115,0.115,0.115,0.115,0.115,0.1697,0.1671,0.1662,0.1603,0.1587,0.1527,0.1515,0.1486,0.1491,0.1418,0.1365,0.1351,0.1273,0.1096,0.093,0.0898,0.0786,0.0724,0.0745,0.0964,0.0997,0.1029,0.096,0.0709,0.0709,0.0356,0.0353,0.0351]},{"header":{"parameterUnit":"m.s-1","parameterCategory":2,"la1":30.2991,"la2":30.254,"lo1":-89.0895,"lo2":-89.0444,"dy":0.0017,"dx":0.0017,"nx":28,"ny":28,"refTime":"2024-10-18T21:00:00:Z","depth":"0","parameterNumber":3,"parameterNumberName":"V-component_of_CURRENTS"},"data":[0,0,0,0,0,0,0,0,0,0,0,0,0,0,0,0,0,0,0,0,0,0,0,0,0,0,0,0,0,0,0,0,0,0,0,0,0,0,0,0,0,0,0,0,0,0,0,0,0,0,0,0,0,0,0,0,0,0,-0.0021,-0.0021,0,-0.0035,-0.0035,-0.0036,-0.0042,-0.0042,-0.0042,-0.0042,-0.0083,-0.0084,-0.0085,0,0,0,0,0,0,0,0,0,0,0,0,0,-0.0022,-0.0022,-0.0021,-0.0021,-0.0021,-0.0035,-0.0035,-0.0036,-0.0042,-0.0042,-0.0042,-0.0042,-0.0082,-0.0084,-0.0085,0,0,0,0,0,0,0,0,0,0,0,0,0,-0.0028,-0.0022,-0.0021,-0.0026,-0.0026,-0.0035,-0.0035,-0.0036,-0.0042,-0.0042,-0.0042,-0.0042,-0.0082,-0.0084,-0.0085,-0.0099,0,0,-0.0091,-0.0091,0,0,0,0,0,0,0,0,-0.0028,-0.0028,-0.0025,-0.0025,-0.0026,-0.0036,-0.0051,-0.0058,-0.0042,-0.0037,-0.0042,-0.0042,-0.0069,-0.0072,-0.0076,-0.01,-0.0102,-0.0091,-0.0092,-0.0093,-0.0093,0,0,0,0,0,0,0,-0.0027,-0.0028,-0.0028,-0.0025,-0.0026,-0.0035,-0.0035,-0.0052,-0.0055,-0.0037,-0.0038,-0.0038,-0.007,-0.0074,-0.0077,-0.0103,-0.0091,-0.0092,-0.0093,-0.0094,-0.0131,-0.0131,0,0,0,0,0,0,-0.0023,-0.0027,-0.0027,-0.0028,-0.0026,-0.0035,-0.0035,-0.0034,-0.0054,-0.0056,-0.0038,-0.0038,-0.0071,-0.0075,-0.0078,-0.0083,-0.0093,-0.0094,-0.0095,-0.0131,-0.0131,-0.0131,0,0,0,0,0,0,-0.0023,-0.0023,-0.0026,-0.0027,-0.0028,-0.0034,-0.0033,-0.0034,-0.0036,-0.0054,-0.0057,-0.0038,-0.0071,-0.0076,-0.0087,-0.0085,-0.0095,-0.0097,-0.0131,-0.0131,-0.0131,-0.0101,0,0,0,0,0,0,-0.0023,-0.0023,-0.0022,-0.0027,-0.0028,-0.0028,-0.0033,-0.0034,-0.0036,-0.0036,-0.0056,-0.0059,-0.0071,-0.0084,-0.0089,-0.0088,-0.0098,-0.0131,-0.0131,-0.0131,-0.0102,-0.01,-0.0098,0,0,0,0,0,-0.0023,-0.0021,-0.0022,-0.0022,-0.0026,-0.0028,-0.0029,-0.0034,-0.0036,-0.0036,-0.0046,-0.0058,-0.0087,-0.0085,-0.0091,-0.009,-0.0131,-0.0131,-0.0131,-0.0103,-0.01,-0.0098,0,0,0,0,0,0,-0.0023,-0.0021,-0.0023,-0.0021,-0.0023,-0.0028,-0.0029,-0.0032,-0.0041,-0.0041,-0.0058,-0.0063,-0.0072,-0.0086,-0.0084,-0.0101,-0.0111,-0.0112,-0.0088,-0.0086,-0.0084,-0.0071,-0.0099,0,0,0,0,0,-0.0022,-0.0019,-0.002,-0.0019,-0.0019,-0.0024,-0.0026,-0.0028,-0.0034,-0.0038,-0.005,-0.0064,-0.0077,-0.0084,-0.0098,-0.0108,-0.0117,-0.0111,-0.0109,-0.0107,-0.0101,-0.0117,-0.0115,-0.013,-0.013,-0.013,0,0,-0.0023,-0.0021,-0.002,-0.0019,-0.0021,-0.0016,-0.0025,-0.0024,-0.0019,-0.0042,-0.0042,-0.0059,-0.0078,-0.0086,-0.0092,-0.0097,-0.0107,-0.0107,-0.0105,-0.01,-0.0116,-0.0115,-0.0113,-0.013,-0.013,-0.013,0,0,-0.0016,-0.0019,-0.0011,-0.001,-0.0008,-0.0011,-0.0009,-0.0013,-0.0014,-0.0019,-0.0031,-0.0043,-0.0065,-0.0074,-0.0082,-0.0079,-0.0096,-0.0087,-0.0066,-0.0082,-0.0081,-0.008,-0.0084,-0.0084,-0.0085,-0.0085,-0.0085,0,-0.0015,-0.0004,-0.001,-0.0,0.0004,-0.0006,0.0005,0.0001,-0.0006,-0.0002,-0.0015,-0.0039,-0.0058,-0.0062,-0.0061,-0.0074,-0.0082,-0.0073,-0.0078,-0.0078,-0.0077,-0.0083,-0.0083,-0.0084,-0.0084,-0.0084,-0.0084,0,0.0,0.0009,0.0014,0.0025,0.0026,0.0033,0.0031,0.0032,0.0026,0.0023,0.0016,-0.0011,-0.0022,-0.0034,-0.0047,-0.0051,-0.0058,-0.0074,-0.0083,-0.0074,-0.008,-0.0081,-0.0082,-0.0082,-0.0083,-0.0083,0,0,0.0014,0.0024,0.0029,0.0041,0.0042,0.0049,0.0056,0.0064,0.008,0.0056,0.0069,0.0037,0.0023,0.0013,-0.0009,-0.0025,-0.0032,-0.0045,-0.0047,-0.0046,-0.0058,-0.0049,-0.0049,-0.005,-0.005,-0.005,-0.0061,0,0.0034,0.0059,0.0057,0.0081,0.0095,0.009,0.01,0.0103,0.0104,0.0112,0.008,0.0078,0.0041,0.0037,0.0014,-0.0015,-0.0033,-0.0027,-0.007,-0.0071,-0.0061,-0.005,-0.001,-0.0016,-0.0062,-0.0062,-0.0062,0,0.006,0.0074,0.01,0.0121,0.0127,0.0135,0.016,0.0171,0.0175,0.0172,0.0159,0.0137,0.0115,0.0077,0.0028,0.0034,-0.0009,-0.004,-0.0041,-0.0043,-0.0064,-0.0034,-0.0015,-0.0067,-0.0064,-0.0063,-0.0063,0,0.0086,0.0109,0.0132,0.0138,0.0154,0.0166,0.0178,0.0191,0.0216,0.0215,0.0227,0.019,0.0181,0.012,0.0058,0.0042,0.0005,-0.0026,-0.0061,-0.006,-0.0039,-0.0037,-0.007,-0.0069,-0.0069,-0.0069,-0.0069,0,0.0116,0.0138,0.0147,0.0161,0.0196,0.0195,0.0236,0.0245,0.0268,0.0305,0.0261,0.0282,0.019,0.0158,0.0084,0.0024,0.0024,-0.0049,-0.0062,-0.0027,-0.0024,-0.0078,-0.0119,-0.0069,-0.0069,-0.0069,-0.0069,0,0.0147,0.0151,0.0181,0.02,0.0211,0.0238,0.0278,0.0313,0.0323,0.0372,0.0373,0.0356,0.0321,0.0233,0.0148,0.0071,-0.0026,-0.0026,0.0027,0.0021,-0.0065,-0.0106,-0.014,-0.0196,-0.0065,-0.0065,-0.0065,0,0.0165,0.0183,0.0213,0.0238,0.0248,0.0285,0.0319,0.0341,0.0387,0.0426,0.0459,0.0438,0.0444,0.0329,0.0202,0.0086,-0.0,0.0019,-0.0012,-0.0055,-0.0111,-0.0128,-0.0175,0.0029,0.003,0.0031,0.0032,0,0.0203,0.0209,0.0234,0.0281,0.0318,0.0362,0.0412,0.0457,0.0494,0.0538,0.0598,0.0607,0.0515,0.0433,0.0268,0.0174,-0.0007,0.003,-0.003,-0.0048,-0.0053,-0.0117,0.0025,0.0038,0.0038,0.0037,0.0037,0.0036,0.0231,0.0253,0.0283,0.0328,0.0374,0.0433,0.0472,0.0539,0.0615,0.0681,0.0701,0.0722,0.0609,0.0408,0.028,0.0074,0.004,0.0002,-0.0046,-0.006,-0.0108,0.0053,0.0058,0.0058,0.0057,0.0057,0.0057,0,0.0265,0.0285,0.033,0.0379,0.0427,0.0446,0.053,0.057,0.0661,0.0736,0.0789,0.0752,0.0628,0.0439,0.0191,0.0035,-0.0047,-0.0061,-0.0079,-0.0131,0.0011,0.002,0.0036,0.0036,0.0036,0.0036,0.0036,0.0036,0.0283,0.0321,0.0336,0.0409,0.0447,0.0501,0.0544,0.0617,0.068,0.0745,0.076,0.0755,0.0613,0.0332,0.0057,-0.0034,-0.0177,-0.0167,-0.028,-0.0176,-0.0173,-0.0171,-0.0172,-0.0196,-0.0197,-0.0386,-0.0388,-0.0389]}],[{"header":{"parameterUnit":"m.s-1","parameterCategory":2,"la1":30.2991,"la2":30.254,"lo1":-89.0895,"lo2":-89.0444,"dy":0.0017,"dx":0.0017,"nx":28,"ny":28,"refTime":"2024-10-18T21:00:00:Z","depth":"2","parameterNumber":2,"parameterNumberName":"U-component_of_CURRENTS"},"data":[0,0,0,0,0,0,0,0,0,0,0,0,0,0,0,0,0,0,0,0,0,0,0,0,0,0,0,0,0,0,0,0,0,0,0,0,0,0,0,0,0,0,0,0,0,0,0,0,0,0,0,0,0,0,0,0,0,0,0.1849,0.1849,0,0.1815,0.1814,0.1813,0.1792,0.1792,0.1792,0.1792,0.1778,0.1777,0.1777,0,0,0,0,0,0,0,0,0,0,0,0,0,0.1894,0.1893,0.1849,0.1849,0.1848,0.1815,0.1814,0.1813,0.1792,0.1792,0.1792,0.1792,0.1778,0.1777,0.1777,0,0,0,0,0,0,0,0,0,0,0,0,0,0.1867,0.1893,0.1849,0.1835,0.1833,0.1815,0.1814,0.1813,0.1792,0.1792,0.1792,0.1792,0.1778,0.1778,0.1777,0.1773,0,0,0.1775,0.1775,0,0,0,0,0,0,0,0,0.1869,0.1865,0.1837,0.1836,0.1834,0.1809,0.1825,0.1801,0.1792,0.1806,0.1792,0.1792,0.1791,0.179,0.178,0.1772,0.1771,0.1775,0.1775,0.1774,0.1774,0,0,0,0,0,0,0,0.1871,0.1867,0.1834,0.1837,0.1835,0.183,0.1826,0.182,0.1798,0.1804,0.1803,0.1802,0.179,0.1781,0.178,0.1771,0.1775,0.1775,0.1774,0.1774,0.179,0.1791,0,0,0,0,0,0,0.1878,0.1868,0.1835,0.1833,0.1854,0.1829,0.1824,0.1816,0.1797,0.1795,0.1802,0.1801,0.1782,0.1781,0.1779,0.1801,0.1774,0.1774,0.1774,0.1789,0.179,0.1791,0,0,0,0,0,0,0.1879,0.1875,0.1836,0.1852,0.1847,0.1828,0.1818,0.1815,0.1813,0.1796,0.1793,0.1805,0.1782,0.178,0.1782,0.1799,0.1774,0.1773,0.1788,0.179,0.1791,0.1825,0,0,0,0,0,0,0.188,0.1875,0.1877,0.1852,0.1846,0.1833,0.1819,0.1814,0.1813,0.1811,0.1797,0.1795,0.1782,0.1783,0.1781,0.1798,0.1773,0.1787,0.1789,0.179,0.1823,0.1828,0.1831,0,0,0,0,0,0.1882,0.1882,0.1877,0.1874,0.1847,0.1834,0.183,0.1816,0.1813,0.1814,0.1806,0.1796,0.1792,0.1783,0.1781,0.1797,0.1787,0.1788,0.179,0.1822,0.1827,0.1831,0,0,0,0,0,0,0.1901,0.1879,0.1873,0.1867,0.1856,0.1831,0.1832,0.1823,0.1816,0.1818,0.1801,0.1799,0.181,0.1799,0.179,0.1807,0.179,0.1791,0.1814,0.1819,0.1823,0.184,0.1772,0,0,0,0,0,0.1907,0.1902,0.1882,0.1878,0.1875,0.1857,0.1852,0.1843,0.1831,0.1828,0.1817,0.1812,0.1815,0.1813,0.1811,0.1815,0.1821,0.1827,0.1831,0.1834,0.1847,0.1875,0.1883,0.1797,0.1797,0.1797,0,0,0.1913,0.1902,0.1898,0.1883,0.1873,0.1869,0.1854,0.185,0.1851,0.1828,0.1831,0.1828,0.182,0.1828,0.1832,0.182,0.186,0.1836,0.1839,0.1851,0.1877,0.1886,0.1893,0.1798,0.1798,0.1798,0,0,0.192,0.1914,0.1911,0.1905,0.1896,0.1886,0.1889,0.1871,0.187,0.1869,0.1861,0.1871,0.1859,0.1863,0.1863,0.1889,0.1884,0.1887,0.1916,0.1943,0.195,0.1957,0.1966,0.1974,0.1885,0.1885,0.1885,0,0.1931,0.1919,0.191,0.1907,0.1906,0.1896,0.1896,0.1894,0.188,0.1888,0.1877,0.1886,0.188,0.1901,0.191,0.19,0.1908,0.1896,0.1949,0.1955,0.1962,0.197,0.1977,0.1887,0.1886,0.1886,0.1886,0,0.1929,0.1927,0.1927,0.1919,0.192,0.1919,0.1916,0.1921,0.1921,0.192,0.1942,0.1936,0.1942,0.1944,0.1934,0.1976,0.1964,0.1954,0.1937,0.1973,0.1978,0.1986,0.1889,0.1889,0.1888,0.1888,0,0,0.1928,0.1926,0.1926,0.1923,0.1927,0.192,0.194,0.1948,0.1965,0.1965,0.1988,0.1999,0.2002,0.2003,0.1997,0.2021,0.2067,0.2009,0.2009,0.2019,0.2118,0.2049,0.205,0.2066,0.2068,0.207,0.2101,0,0.1928,0.1923,0.1928,0.1929,0.1924,0.1935,0.1953,0.1966,0.1981,0.2002,0.2017,0.2037,0.2022,0.2031,0.2054,0.207,0.209,0.2059,0.2081,0.2082,0.2018,0.2058,0.1858,0.1865,0.2108,0.2109,0.211,0,0.1917,0.1916,0.1917,0.1928,0.193,0.1936,0.1964,0.1979,0.202,0.2039,0.2068,0.2077,0.2117,0.2097,0.2146,0.2127,0.213,0.2137,0.2138,0.207,0.2028,0.187,0.1869,0.2122,0.2121,0.212,0.2119,0,0.1899,0.1905,0.1905,0.1906,0.1922,0.1934,0.1949,0.1988,0.2012,0.2066,0.2089,0.2133,0.2154,0.218,0.2188,0.2175,0.2236,0.2215,0.2154,0.2148,0.1981,0.1958,0.2253,0.2253,0.2253,0.2252,0.2252,0,0.1885,0.1881,0.1895,0.189,0.1902,0.1921,0.1947,0.1977,0.203,0.2058,0.2103,0.2129,0.2179,0.2207,0.2213,0.2206,0.2254,0.2173,0.216,0.1986,0.1964,0.2189,0.2181,0.2254,0.2253,0.2253,0.2253,0,0.1854,0.1864,0.1861,0.1881,0.1889,0.1894,0.1936,0.1957,0.2015,0.2055,0.2075,0.2142,0.2179,0.221,0.2255,0.2225,0.2234,0.2214,0.2,0.1961,0.2121,0.2115,0.2156,0.2154,0.2153,0.2151,0.215,0,0.1833,0.1829,0.1845,0.1847,0.1854,0.1869,0.1886,0.1944,0.1972,0.2048,0.2065,0.2122,0.2132,0.2172,0.214,0.2134,0.2199,0.1946,0.1887,0.2132,0.2115,0.2112,0.2108,0.1675,0.167,0.1666,0.1663,0,0.1797,0.1808,0.1809,0.1811,0.1821,0.1829,0.1858,0.1878,0.1943,0.1968,0.2007,0.2022,0.2045,0.194,0.1932,0.1905,0.1933,0.1863,0.2181,0.1732,0.1681,0.1664,0.1675,0.1626,0.163,0.1633,0.1635,0.1636,0.1775,0.1767,0.1773,0.1769,0.1777,0.1775,0.1763,0.1789,0.1802,0.1796,0.1876,0.1809,0.181,0.1684,0.1628,0.1583,0.1731,0.1639,0.1651,0.1667,0.1607,0.1556,0.1466,0.1469,0.1471,0.1473,0.1475,0,0.1734,0.1733,0.1729,0.1715,0.1693,0.1718,0.1729,0.1682,0.1648,0.1636,0.1618,0.1439,0.1337,0.135,0.1214,0.1214,0.1195,0.1166,0.1117,0.1153,0.1186,0.1101,0.0826,0.0825,0.0823,0.0821,0,0,0.1716,0.1691,0.1683,0.1628,0.1618,0.1555,0.1543,0.1476,0.1435,0.1324,0.1241,0.1262,0.1295,0.1037,0.1003,0.0889,0.1018,0.085,0.1368,0.1347,0.1377,0.1456,0.1366,0,0,0,0,0]},{"header":{"parameterUnit":"m.s-1","parameterCategory":2,"la1":30.2991,"la2":30.254,"lo1":-89.0895,"lo2":-89.0444,"dy":0.0017,"dx":0.0017,"nx":28,"ny":28,"refTime":"2024-10-18T21:00:00:Z","depth":"2","parameterNumber":3,"parameterNumberName":"V-component_of_CURRENTS"},"data":[0,0,0,0,0,0,0,0,0,0,0,0,0,0,0,0,0,0,0,0,0,0,0,0,0,0,0,0,0,0,0,0,0,0,0,0,0,0,0,0,0,0,0,0,0,0,0,0,0,0,0,0,0,0,0,0,0,0,0.0103,0.0103,0,0.0082,0.0082,0.0082,0.0065,0.0064,0.0064,0.0064,0.0015,0.0014,0.0012,0,0,0,0,0,0,0,0,0,0,0,0,0,0.0109,0.0109,0.0104,0.0103,0.0103,0.0082,0.0082,0.0082,0.0065,0.0064,0.0064,0.0064,0.0015,0.0014,0.0012,0,0,0,0,0,0,0,0,0,0,0,0,0,0.0098,0.0109,0.0104,0.0092,0.0091,0.0082,0.0082,0.0081,0.0065,0.0064,0.0064,0.0064,0.0016,0.0014,0.0012,0.0005,0,0,0.0007,0.0006,0,0,0,0,0,0,0,0,0.0099,0.0098,0.0094,0.0093,0.0092,0.0076,0.0066,0.0055,0.0065,0.0074,0.0064,0.0064,0.0033,0.003,0.0026,0.0002,0.0,0.0006,0.0005,0.0005,0.0004,0,0,0,0,0,0,0,0.01,0.0099,0.0095,0.0094,0.0093,0.0081,0.008,0.0063,0.0054,0.0073,0.0072,0.0071,0.0032,0.0028,0.0025,-0.0,0.0006,0.0005,0.0004,0.0003,-0.0034,-0.0034,0,0,0,0,0,0,0.0105,0.01,0.0095,0.0094,0.0096,0.0082,0.008,0.0081,0.0055,0.0051,0.0071,0.007,0.0031,0.0027,0.0023,0.0013,0.0005,0.0003,0.0002,-0.0034,-0.0034,-0.0034,0,0,0,0,0,0,0.0105,0.0105,0.0096,0.0097,0.0095,0.0082,0.0083,0.0081,0.0073,0.0053,0.0049,0.0065,0.0031,0.0025,0.0011,0.0011,0.0002,0.0,-0.0034,-0.0034,-0.0034,-0.0007,0,0,0,0,0,0,0.0105,0.0105,0.0103,0.0097,0.0095,0.0092,0.0083,0.008,0.0073,0.0071,0.0047,0.0042,0.003,0.0014,0.0009,0.0008,-0.0001,-0.0035,-0.0034,-0.0034,-0.0008,-0.0006,-0.0005,0,0,0,0,0,0.0106,0.0107,0.0103,0.0102,0.0094,0.0092,0.009,0.0079,0.0072,0.0071,0.0057,0.0043,0.0011,0.0013,0.0007,0.0005,-0.0035,-0.0034,-0.0034,-0.0009,-0.0007,-0.0005,0,0,0,0,0,0,0.0105,0.0105,0.0101,0.01,0.0096,0.0089,0.0085,0.0078,0.0066,0.0062,0.0044,0.0039,0.0026,0.0012,0.0014,-0.0005,-0.0014,-0.0015,0.0007,0.0009,0.0011,0.0022,-0.0002,0,0,0,0,0,0.0105,0.0106,0.0103,0.0102,0.0101,0.0092,0.0087,0.0082,0.0073,0.0067,0.0052,0.0035,0.0023,0.0014,-0.0001,-0.0012,-0.0021,-0.0016,-0.0014,-0.0013,-0.0007,-0.0021,-0.002,-0.0034,-0.0034,-0.0034,0,0,0.0102,0.0103,0.0102,0.0102,0.0097,0.01,0.0089,0.0084,0.0087,0.0063,0.0057,0.0039,0.0021,0.0012,0.0004,-0.0,-0.0013,-0.0012,-0.0011,-0.0006,-0.0021,-0.002,-0.0018,-0.0033,-0.0033,-0.0033,0,0,0.0107,0.0101,0.0107,0.0107,0.0104,0.0101,0.01,0.0093,0.0089,0.0081,0.0067,0.0053,0.0029,0.0022,0.0014,0.0017,-0.0003,0.0007,0.0025,0.0011,0.0012,0.0013,0.0007,0.0007,0.0008,0.0008,0.0008,0,0.0104,0.0113,0.0107,0.0115,0.0117,0.0103,0.0112,0.0107,0.0096,0.0098,0.0082,0.0056,0.0036,0.0034,0.0034,0.0021,0.0011,0.0019,0.0014,0.0015,0.0015,0.0008,0.0008,0.0009,0.0009,0.0009,0.0009,0,0.0117,0.0123,0.0126,0.0134,0.0134,0.0138,0.0136,0.0135,0.0124,0.0119,0.011,0.0083,0.007,0.0058,0.0045,0.004,0.0032,0.0018,0.001,0.0018,0.001,0.001,0.0011,0.0011,0.001,0.001,0,0,0.0124,0.0134,0.0137,0.0147,0.0147,0.0153,0.0159,0.0166,0.018,0.0152,0.0163,0.0131,0.0113,0.0104,0.0082,0.0066,0.0057,0.0044,0.0042,0.0041,0.0029,0.0036,0.0036,0.0039,0.0039,0.0039,0.0024,0,0.0139,0.0161,0.0161,0.0181,0.0194,0.0189,0.02,0.0202,0.0201,0.0206,0.0175,0.017,0.0132,0.0124,0.0102,0.0074,0.0055,0.0062,0.0019,0.0018,0.0026,0.0036,0.007,0.0061,0.0024,0.0023,0.0023,0,0.016,0.0173,0.0196,0.0217,0.0222,0.0228,0.0253,0.0263,0.0267,0.0263,0.0249,0.0225,0.0202,0.0163,0.0114,0.0119,0.0076,0.0046,0.0045,0.0042,0.0024,0.0045,0.006,0.0022,0.0022,0.0022,0.0022,0,0.018,0.0201,0.0221,0.0227,0.0244,0.0255,0.0265,0.0279,0.0304,0.0301,0.0311,0.0274,0.0262,0.0202,0.0139,0.0124,0.0087,0.0058,0.0023,0.0023,0.004,0.0042,0.0016,0.0016,0.0016,0.0016,0.0016,0,0.0205,0.0223,0.0232,0.0245,0.0277,0.0278,0.0315,0.0325,0.0347,0.0384,0.034,0.036,0.0269,0.0237,0.0164,0.0103,0.0105,0.0033,0.0021,0.0051,0.0054,0.0009,0.0008,0.0016,0.0016,0.0016,0.0016,0,0.0228,0.0232,0.026,0.0278,0.0288,0.0312,0.0352,0.0387,0.0396,0.0443,0.0443,0.0428,0.0391,0.0306,0.0223,0.0148,0.0081,0.0053,0.01,0.0093,0.0017,0.0018,0.0012,0.0012,0.0012,0.0012,0.0012,0,0.0243,0.0258,0.0287,0.031,0.0319,0.0353,0.0386,0.0409,0.0455,0.0495,0.0527,0.0504,0.0508,0.0395,0.0273,0.0158,0.0112,0.0088,0.0059,0.0029,0.0017,0.0018,0.0019,0.0092,0.0093,0.0094,0.0094,0,0.0275,0.028,0.0304,0.0348,0.0382,0.0426,0.0475,0.052,0.0558,0.06,0.0658,0.0664,0.0573,0.0483,0.032,0.0235,0.0109,0.0096,0.0059,0.0088,0.0103,0.0093,0.0091,0.0099,0.0099,0.0099,0.0098,0.0098,0.0299,0.0319,0.0347,0.039,0.0434,0.0493,0.0531,0.0599,0.0674,0.0732,0.075,0.0744,0.0647,0.0448,0.0328,0.0172,0.0166,0.009,0.0089,0.0086,0.0099,0.0113,0.0114,0.0113,0.0113,0.0112,0.0112,0,0.0329,0.0347,0.0389,0.0437,0.0486,0.0502,0.0587,0.0631,0.072,0.0766,0.0809,0.0709,0.0626,0.0485,0.0283,0.0168,0.0148,0.0108,0.0116,0.0113,0.011,0.0123,0.0144,0.0143,0.0143,0.0142,0,0,0.0345,0.0382,0.0396,0.0467,0.0502,0.0564,0.0607,0.0687,0.0733,0.0779,0.0766,0.0772,0.0639,0.0491,0.0362,0.0248,0.019,0.0214,0.0206,0.023,0.0227,0.0125,0.0144,0,0,0,0,0]}],[{"header":{"parameterUnit":"m.s-1","parameterCategory":2,"la1":30.2991,"la2":30.254,"lo1":-89.0895,"lo2":-89.0444,"dy":0.0017,"dx":0.0017,"nx":28,"ny":28,"refTime":"2024-10-18T21:00:00:Z","depth":"4","parameterNumber":2,"parameterNumberName":"U-component_of_CURRENTS"},"data":[0,0,0,0,0,0,0,0,0,0,0,0,0,0,0,0,0,0,0,0,0,0,0,0,0,0,0,0,0,0,0,0,0,0,0,0,0,0,0,0,0,0,0,0,0,0,0,0,0,0,0,0,0,0,0,0,0,0,0.1065,0.1066,0,0.1084,0.1084,0.1084,0.1108,0.1108,0.1109,0.1109,0.1131,0.1131,0.1131,0,0,0,0,0,0,0,0,0,0,0,0,0,0.1048,0.1048,0.1065,0.1066,0.1066,0.1084,0.1084,0.1084,0.1108,0.1108,0.1109,0.111,0.1131,0.1131,0.1131,0,0,0,0,0,0,0,0,0,0,0,0,0,0.1058,0.1048,0.1065,0.1081,0.1083,0.1084,0.1084,0.1084,0.1107,0.1108,0.1109,0.111,0.1131,0.1131,0.1131,0.1116,0,0,0.1132,0.1132,0,0,0,0,0,0,0,0,0.1058,0.1059,0.1079,0.108,0.1082,0.1096,0.1086,0.1096,0.1107,0.1096,0.1109,0.111,0.112,0.1121,0.112,0.1117,0.1118,0.1132,0.1132,0.1132,0.1132,0,0,0,0,0,0,0,0.1057,0.1058,0.1071,0.1079,0.1081,0.1087,0.1089,0.1088,0.1102,0.1097,0.1099,0.1104,0.1121,0.112,0.1121,0.1118,0.1132,0.1132,0.1132,0.1132,0.1185,0.1187,0,0,0,0,0,0,0.1058,0.1057,0.107,0.1072,0.1074,0.1087,0.1089,0.1089,0.1102,0.1105,0.1104,0.1105,0.112,0.1121,0.1122,0.1171,0.1132,0.1132,0.1132,0.1184,0.1186,0.1187,0,0,0,0,0,0,0.1057,0.1058,0.107,0.1067,0.1069,0.1087,0.1086,0.1089,0.1114,0.1107,0.111,0.1128,0.112,0.1122,0.1146,0.117,0.1132,0.1132,0.1182,0.1185,0.1186,0.1226,0,0,0,0,0,0,0.1056,0.1058,0.107,0.1067,0.1069,0.1087,0.1086,0.1089,0.1115,0.1118,0.1129,0.113,0.1121,0.1146,0.1146,0.1169,0.1132,0.1181,0.1183,0.1186,0.1223,0.123,0.1235,0,0,0,0,0,0.1055,0.1063,0.107,0.1073,0.1081,0.1088,0.109,0.1103,0.1116,0.1128,0.1141,0.1131,0.1162,0.1147,0.1147,0.117,0.1179,0.1183,0.1186,0.1221,0.1228,0.1235,0,0,0,0,0,0,0.1064,0.1066,0.1074,0.1084,0.1095,0.1093,0.111,0.1118,0.1137,0.1149,0.1143,0.1145,0.1177,0.117,0.1153,0.1196,0.1172,0.1175,0.1199,0.1206,0.1211,0.1217,0.1132,0,0,0,0,0,0.107,0.1079,0.1083,0.1095,0.1102,0.1112,0.1122,0.1132,0.1142,0.1152,0.1161,0.1173,0.1184,0.1193,0.12,0.1218,0.1218,0.1236,0.1242,0.1247,0.1253,0.1274,0.1282,0.1197,0.1197,0.1197,0,0,0.1078,0.1082,0.1088,0.1098,0.1109,0.112,0.112,0.1143,0.1159,0.1151,0.1185,0.1195,0.1195,0.1219,0.1233,0.1219,0.1273,0.1251,0.1255,0.1258,0.1278,0.1286,0.1293,0.1199,0.1199,0.1199,0,0,0.1089,0.1102,0.1112,0.1121,0.1142,0.1146,0.1159,0.1173,0.1191,0.1218,0.1221,0.1247,0.1262,0.1267,0.127,0.1312,0.1304,0.1321,0.1351,0.1371,0.1378,0.1384,0.1399,0.1406,0.1321,0.1322,0.1322,0,0.1104,0.111,0.1118,0.113,0.1143,0.116,0.1175,0.1191,0.1215,0.1232,0.1239,0.128,0.1283,0.1308,0.1328,0.1324,0.1335,0.1321,0.1378,0.1384,0.1389,0.1403,0.141,0.1324,0.1324,0.1323,0.1323,0,0.1111,0.1129,0.1138,0.1156,0.1171,0.119,0.1208,0.1235,0.1261,0.1276,0.1321,0.1331,0.1355,0.1363,0.1359,0.1402,0.1397,0.1383,0.1357,0.14,0.1412,0.1418,0.1327,0.1326,0.1326,0.1325,0,0,0.1112,0.1138,0.1145,0.1157,0.1189,0.1196,0.1234,0.1263,0.129,0.1327,0.1362,0.1394,0.1411,0.1417,0.142,0.1441,0.1491,0.1436,0.1436,0.1446,0.154,0.1429,0.1426,0.1489,0.1491,0.1492,0.1534,0,0.112,0.1141,0.1156,0.1184,0.1195,0.1224,0.1253,0.1286,0.1321,0.136,0.1389,0.1426,0.1427,0.1449,0.1472,0.1487,0.1511,0.1481,0.1502,0.1503,0.1394,0.143,0.1496,0.1538,0.154,0.1541,0.1542,0,0.1119,0.1134,0.1162,0.1192,0.1202,0.1227,0.1275,0.1304,0.136,0.1393,0.1439,0.1461,0.1508,0.15,0.1553,0.1537,0.155,0.1556,0.1557,0.1443,0.1404,0.1487,0.1554,0.1553,0.1552,0.1551,0.155,0,0.1099,0.1134,0.1157,0.1169,0.1209,0.1237,0.1267,0.1321,0.1351,0.1422,0.1452,0.1506,0.1541,0.1569,0.1592,0.1582,0.164,0.1619,0.1531,0.1524,0.1593,0.1586,0.1658,0.1658,0.1658,0.1658,0.1658,0,0.1085,0.1106,0.1154,0.1164,0.1198,0.1233,0.1279,0.132,0.1381,0.1413,0.1472,0.1498,0.1564,0.1597,0.1611,0.159,0.1657,0.1542,0.1527,0.1609,0.1604,0.1597,0.159,0.1659,0.1659,0.1659,0.1658,0,0.1055,0.1089,0.1116,0.1169,0.119,0.1217,0.1283,0.1308,0.1376,0.1421,0.1447,0.1515,0.1553,0.1596,0.1643,0.1598,0.1597,0.1574,0.1668,0.1657,0.1464,0.1458,0.1472,0.1469,0.1466,0.1463,0.1461,0,0.1037,0.1051,0.1116,0.1137,0.1167,0.1212,0.124,0.1307,0.1329,0.1412,0.1421,0.1487,0.1521,0.1495,0.1553,0.1564,0.1546,0.1534,0.149,0.1461,0.1446,0.1445,0.1443,0.1456,0.1456,0.1455,0.1454,0,0.1006,0.1044,0.1069,0.1109,0.1145,0.1167,0.121,0.1216,0.1284,0.1358,0.1355,0.1366,0.1401,0.1425,0.1446,0.1452,0.1532,0.1502,0.1508,0.1466,0.1442,0.1429,0.1431,0.1444,0.1445,0.1446,0.1447,0,0.0992,0.1001,0.1042,0.1066,0.1106,0.11,0.1129,0.1138,0.1164,0.1247,0.1247,0.1313,0.1385,0.1367,0.1388,0.1382,0.1357,0.1304,0.132,0.1332,0.1266,0.1213,0.1135,0,0,0,0,0,0.0968,0.0966,0.0988,0.0999,0.1033,0.1049,0.1095,0.1121,0.1186,0.1151,0.1191,0.1214,0.1223,0.1261,0.1227,0.1335,0.1372,0.1289,0.1322,0.1386,0.1398,0.1331,0,0,0,0,0,0,0.095,0.0973,0.0966,0.0935,0.0929,0.0945,0.097,0.1013,0.099,0.1067,0.108,0.1138,0.1173,0.1233,0.1204,0.1216,0.121,0.1336,0.1332,0.1379,0.139,0.1399,0.1335,0,0,0,0,0]},{"header":{"parameterUnit":"m.s-1","parameterCategory":2,"la1":30.2991,"la2":30.254,"lo1":-89.0895,"lo2":-89.0444,"dy":0.0017,"dx":0.0017,"nx":28,"ny":28,"refTime":"2024-10-18T21:00:00:Z","depth":"4","parameterNumber":3,"parameterNumberName":"V-component_of_CURRENTS"},"data":[0,0,0,0,0,0,0,0,0,0,0,0,0,0,0,0,0,0,0,0,0,0,0,0,0,0,0,0,0,0,0,0,0,0,0,0,0,0,0,0,0,0,0,0,0,0,0,0,0,0,0,0,0,0,0,0,0,0,0.0246,0.0246,0,0.024,0.024,0.024,0.024,0.024,0.0241,0.0241,0.0233,0.0233,0.0233,0,0,0,0,0,0,0,0,0,0,0,0,0,0.0235,0.0236,0.0246,0.0246,0.0246,0.024,0.024,0.024,0.024,0.024,0.0241,0.0241,0.0233,0.0233,0.0233,0,0,0,0,0,0,0,0,0,0,0,0,0,0.0236,0.0236,0.0246,0.0245,0.0245,0.024,0.024,0.024,0.024,0.024,0.0241,0.0241,0.0233,0.0233,0.0233,0.0228,0,0,0.0231,0.0231,0,0,0,0,0,0,0,0,0.0236,0.0236,0.0245,0.0245,0.0245,0.0241,0.0234,0.0236,0.024,0.0242,0.0241,0.0241,0.0235,0.0235,0.0234,0.0228,0.0227,0.0231,0.0231,0.0231,0.0231,0,0,0,0,0,0,0,0.0236,0.0237,0.0244,0.0245,0.0245,0.0237,0.0238,0.0234,0.0239,0.0242,0.0242,0.0241,0.0235,0.0234,0.0234,0.0227,0.0231,0.0231,0.0231,0.0231,0.0231,0.0231,0,0,0,0,0,0,0.0237,0.0237,0.0244,0.0244,0.024,0.0238,0.0238,0.0242,0.0239,0.0238,0.0241,0.0241,0.0235,0.0234,0.0233,0.0247,0.0231,0.0231,0.023,0.0231,0.0231,0.0232,0,0,0,0,0,0,0.0237,0.0238,0.0244,0.0239,0.024,0.0238,0.0242,0.0242,0.0244,0.0238,0.0237,0.0244,0.0235,0.0234,0.0236,0.0246,0.023,0.023,0.0231,0.0231,0.0231,0.0261,0,0,0,0,0,0,0.0237,0.0238,0.0243,0.024,0.024,0.0245,0.0242,0.0242,0.0243,0.0243,0.024,0.0239,0.0235,0.0237,0.0235,0.0245,0.023,0.023,0.0231,0.0231,0.026,0.0262,0.0264,0,0,0,0,0,0.0237,0.0244,0.0244,0.0244,0.0246,0.0246,0.0245,0.0244,0.0243,0.0246,0.0245,0.0239,0.0239,0.0236,0.0235,0.0245,0.023,0.0231,0.0231,0.0258,0.0262,0.0264,0,0,0,0,0,0,0.024,0.0244,0.0244,0.0251,0.025,0.0246,0.0248,0.0246,0.0247,0.0248,0.0242,0.0241,0.0247,0.024,0.0237,0.0245,0.0233,0.0234,0.0255,0.0258,0.026,0.0265,0.0229,0,0,0,0,0,0.0243,0.0251,0.0249,0.0256,0.0255,0.0252,0.0252,0.0251,0.025,0.025,0.0248,0.0246,0.0247,0.0248,0.0246,0.0249,0.0236,0.0254,0.0257,0.0259,0.0262,0.0253,0.0255,0.0233,0.0233,0.0233,0,0,0.0246,0.0249,0.0253,0.0257,0.0256,0.026,0.0252,0.0254,0.0262,0.0249,0.0259,0.0254,0.025,0.0256,0.0258,0.0253,0.0256,0.0259,0.0261,0.0263,0.0254,0.0256,0.0258,0.0234,0.0234,0.0234,0,0,0.0254,0.0258,0.0266,0.0268,0.0268,0.0267,0.0269,0.0267,0.0271,0.0276,0.0272,0.0273,0.0272,0.0274,0.0274,0.0288,0.0269,0.0285,0.0303,0.0295,0.0297,0.0298,0.0277,0.0276,0.0287,0.0287,0.0287,0,0.0256,0.0268,0.0267,0.0274,0.028,0.0272,0.0282,0.0284,0.0284,0.0291,0.0283,0.0287,0.0282,0.0295,0.03,0.0294,0.028,0.0294,0.0298,0.03,0.0301,0.0278,0.0277,0.0288,0.0288,0.0288,0.0288,0,0.0268,0.0279,0.0283,0.0294,0.0299,0.0305,0.0308,0.0314,0.0316,0.0318,0.0328,0.032,0.0322,0.0321,0.0315,0.0323,0.0307,0.0302,0.0292,0.0305,0.028,0.0278,0.0291,0.029,0.029,0.0289,0,0,0.0273,0.029,0.0293,0.0304,0.0312,0.0319,0.0334,0.0347,0.0364,0.0357,0.0374,0.0372,0.0364,0.0363,0.0354,0.0347,0.0338,0.0329,0.0328,0.0309,0.0308,0.0287,0.0283,0.0334,0.0334,0.0334,0.0286,0,0.0284,0.0304,0.0312,0.0335,0.0346,0.0351,0.0368,0.038,0.0389,0.0402,0.0393,0.0402,0.0381,0.0383,0.0373,0.0352,0.0336,0.0351,0.0297,0.0296,0.0277,0.0282,0.0334,0.0284,0.0284,0.0284,0.0283,0,0.0295,0.0309,0.0333,0.0362,0.0368,0.0383,0.0414,0.043,0.0446,0.0451,0.0453,0.0442,0.0435,0.0412,0.0375,0.0385,0.0347,0.0324,0.0322,0.0292,0.0272,0.027,0.028,0.028,0.028,0.0281,0.0281,0,0.03,0.0327,0.035,0.0358,0.0385,0.0404,0.0422,0.0446,0.0471,0.0484,0.0494,0.0479,0.0473,0.0431,0.0378,0.0376,0.0329,0.0321,0.0262,0.026,0.028,0.0279,0.0287,0.0287,0.0287,0.0287,0.0287,0,0.0309,0.0329,0.0355,0.0368,0.0403,0.0419,0.046,0.0477,0.0507,0.0535,0.0519,0.0527,0.0477,0.0442,0.0388,0.0319,0.0333,0.0264,0.0249,0.0292,0.0293,0.0278,0.0278,0.0285,0.0286,0.0286,0.0286,0,0.0311,0.0327,0.0356,0.039,0.0406,0.0433,0.0486,0.0516,0.0538,0.0572,0.0575,0.0565,0.0521,0.0459,0.0391,0.0334,0.0271,0.0239,0.0283,0.027,0.0201,0.0203,0.0171,0.017,0.0169,0.0168,0.0167,0,0.0314,0.0328,0.0371,0.0394,0.0413,0.0455,0.0488,0.0528,0.0562,0.0593,0.0608,0.0579,0.0556,0.0444,0.038,0.0269,0.0249,0.0203,0.0207,0.0203,0.0191,0.0194,0.0197,0.0166,0.0166,0.0165,0.0165,0,0.032,0.0335,0.036,0.0404,0.0442,0.0486,0.0535,0.0561,0.0605,0.0623,0.0625,0.0571,0.0519,0.0439,0.035,0.0273,0.023,0.0193,0.0194,0.0198,0.0196,0.0186,0.019,0.0162,0.0163,0.0163,0.0163,0,0.0326,0.0341,0.0374,0.0412,0.046,0.0504,0.0531,0.0567,0.0601,0.0631,0.0629,0.0578,0.0556,0.0441,0.0365,0.0283,0.0258,0.0217,0.0217,0.0219,0.0248,0.0255,0.0226,0,0,0,0,0,0.033,0.0346,0.0381,0.0423,0.047,0.0499,0.0558,0.0584,0.0621,0.0619,0.0626,0.0575,0.0468,0.0434,0.0348,0.0343,0.0242,0.0236,0.0194,0.0145,0.0148,0.0172,0,0,0,0,0,0,0.0333,0.0363,0.0376,0.0424,0.0454,0.0509,0.0547,0.0574,0.0577,0.0599,0.055,0.0532,0.0437,0.0512,0.0338,0.0317,0.0272,0.0195,0.0193,0.0143,0.0146,0.0149,0.0175,0,0,0,0,0]}]]